Regional Weather Roundup
Issued by NWS

Home | Current Version | Previous Version | Graphics & Text | Print | Product List | Glossary On
Versions: 1 2 3 4 5 6 7 8 9 10 11 12 13 14 15 16 17 18 19 20 21 22 23 24 25 26 27 28 29 30 31 32 33 34 35 36 37 38 39 40 41 42 43 44 45 46 47 48 49 50
000
ASUS45 KSLC 262310
RWRUT

UTAH REGIONAL WEATHER ROUNDUP
NATIONAL WEATHER SERVICE SALT LAKE CITY UT
500 PM MDT SUN APR 26 2015

UTZ001>011-023>025-270000-

NORTHERN UTAH

CITY           SKY/WX    TMP DP  RH WIND       PRES   REMARKS
BRIGHAM CITY   CLOUDY    52  32  47 N8        30.04R
HILL AFB       CLOUDY    51  32  49 N13       30.03R
LOGAN          CLOUDY    49  34  56 N9        30.04R
OGDEN          CLOUDY    52  34  50 N14G20    30.02R
PROVO AIRPORT  PTSUNNY   52  34  50 NW21G30   30.01R
SALT LAKE CITY CLOUDY    49  34  56 W10       30.04R
VERNAL         PTSUNNY   60  32  34 NE14      29.83R
WENDOVER       SUNNY     57  16  19 N10       30.04F
HEBER CITY     CLOUDY    46  32  57 N14       30.00R
WEST JORDAN    CLOUDY    46  34  61 NW12      30.05R

$$

UTZ012>022-026-027-270000-

SOUTHERN/CENTRAL UTAH

CITY           SKY/WX    TMP DP  RH WIND       PRES   REMARKS
BLANDING       MOSUNNY   55  37  50 NW18      29.84R
BRYCE CANYON   PTSUNNY   43  25  49 NW22G29   29.95S
CEDAR CITY     CLOUDY    47  28  47 NE15G24   29.98S
DELTA          CLOUDY    50  31  47 N17G23    30.02S
HANKSVILLE     MOSUNNY   61  30  31 NW20G31   29.83S
MILFORD        MOSUNNY   54  24  31 NE23G30   30.00R
MOAB/CYNLANDS  PTSUNNY   59  42  53 N6        29.78S
PRICE          SUNNY     52  30  43 NW23G35   29.88
ST GEORGE      MOCLDY    64  27  24 CALM      29.90S

$$

REGIONAL REPORTS     COLORADO/ARIZONA

CITY           SKY/WX    TMP DP  RH WIND       PRES   REMARKS
CRAIG, CO      CLOUDY    47  40  76 SW3       29.85R
GRAND JUNCTION LGT RAIN  50  44  80 NW3       29.79R
RIFLE          LGT RAIN  47  40  76 W9        29.83R
MONTROSE       CLOUDY    51  40  65 CALM      29.82R
CORTEZ         LGT RAIN  48  41  76 NE9       29.77R
PAGE, AZ       MOSUNNY   65  30  27 NW10      29.80S
GRAND CANYON   PTSUNNY   50  28  42 N15G22    29.90R
KINGMAN        MOSUNNY   66  21  18 NW24G37   29.90F
FLAGSTAFF      CLOUDY    45  35  68 NE15G25   29.89R

$$

REGIONAL REPORTS    NEVADA/IDAHO/WYOMING

CITY           SKY/WX    TMP DP  RH WIND       PRES   REMARKS
LAS VEGAS, NV  MOSUNNY   73  16  11 NW12G26   29.86F
ELY            PTSUNNY   50  18  28 N17G24    30.07S
ELKO           SUNNY     50  16  25 NW16      30.13S
POCATELLO, ID  PTSUNNY   57  26  30 W14G23    30.04S
BURLEY         SUNNY     55  25  31 W20G25    30.04F
EVANSTON, WY   CLOUDY    39  32  76 NW10      30.02R WCI  32
ROCK SPRINGS   RAIN      40  39  97 NE17      29.95R FOG     WCI  31
KEMMERER       CLOUDY    43  32  65 W20G29    29.97S

$$


USA.gov is the U.S. government's official web portal to all federal, state and local government web resources and services.